Temperature
10 11 11 12 13 13 13 13 14 14 14 14 14 14 14 14 14 14 14 15 15 15 15 15 15 15 16 16 16 16 16 16 16 16 16 16 16 16 17 17 17 17 17
10 10 11 11 12 12 13 13 13 13 13 14 14 14 14 14 14 14 14 14 14 14 15 15 15 15 15 16 16 16 16 16 16 16 16 16 16 16 16 17 17 17 17
10 10 10 11 11 12 12 12 13 13 13 13 13 13 13 13 13 13 14 14 14 14 14 14 14 15 15 15 15 16 16 16 16 16 16 16 16 16 16 16 16 17 17
10 10 10 11 11 11 11 12 12 12 12 12 13 13 13 13 13 13 13 13 13 14 14 14 14 14 14 15 15 15 16 16 16 16 16 16 16 16 16 16 16 16 17
10 10 10 11 11 11 11 11 11 12 12 12 12 12 12 12 12 12 12 13 13 13 13 13 14 14 14 14 14 15 15 15 16 16 16 16 16 16 16 16 16 16 17
10 10 10 10 11 11 11 11 11 11 11 11 11 12 12 12 12 12 12 12 12 12 13 13 13 13 13 14 14 14 14 15 15 15 15 15 15 16 16 16 16 16 16
9 10 10 10 10 10 10 10 10 10 10 10 11 11 11 11 11 11 11 12 12 12 12 12 12 13 13 13 13 14 14 14 14 15 15 15 15 15 16 16 16 16 16
9 9 10 10 10 10 10 10 10 9 9 9 9 10 10 10 10 10 11 11 11 11 11 11 12 12 12 13 13 13 13 14 14 14 15 15 15 15 15 16 16 16 16
9 9 9 9 9 9 9 9 9 8 8 8 8 8 8 9 9 9 9 10 10 10 10 11 11 11 12 12 12 13 13 13 13 14 14 15 15 15 15 16 16 16 16
8 8 8 8 8 8 8 7 7 7 6 6 6 6 6 6 7 7 7 8 8 8 9 10 10 11 11 12 12 12 13 13 13 13 14 14 15 15 15 15 15 15 16
7 7 7 7 7 6 6 6 6 5 5 4 4 4 4 5 5 5 5 6 6 7 7 8 9 10 10 11 11 11 12 12 13 13 13 14 14 14 14 15 15 15 15
6 6 6 5 5 5 5 4 4 4 3 3 2 2 2 3 3 3 4 4 4 5 6 6 7 8 9 10 11 11 11 12 12 12 13 13 14 14 14 14 15 15 15
5 4 4 4 4 3 3 3 2 2 2 1 1 0 1 1 1 2 2 3 3 3 4 5 6 6 7 8 9 10 11 11 11 12 12 13 13 13 14 14 14 15 15
4 3 3 2 2 2 2 2 1 1 0 -0 -1 -1 -1 -1 -0 0 1 1 1 1 2 3 3 4 5 6 7 9 10 10 11 11 12 12 12 13 13 14 14 14 15
3 2 2 2 1 1 1 1 0 0 -0 -1 -2 -2 -2 -2 -2 -2 -1 -1 -1 -0 0 1 2 2 3 4 6 7 8 9 10 10 11 12 12 12 13 13 14 14 14
3 2 1 1 1 1 1 0 -0 -1 -1 -2 -2 -3 -3 -3 -3 -3 -3 -3 -2 -2 -2 -1 -1 0 1 2 4 5 6 8 9 10 10 11 12 12 12 13 13 13 14
3 2 1 1 0 0 -0 -1 -1 -2 -2 -3 -3 -4 -4 -4 -4 -5 -4 -4 -4 -4 -3 -3 -2 -2 -0 1 2 4 5 6 8 9 10 10 11 11 12 12 12 13 13
2 2 1 0 -0 -0 -1 -1 -2 -2 -3 -3 -4 -4 -4 -5 -5 -5 -5 -6 -5 -5 -5 -4 -4 -4 -3 -1 0 2 3 5 6 8 9 9 10 11 11 12 12 12 13
2 1 0 -0 -1 -1 -1 -2 -2 -2 -3 -4 -4 -5 -5 -5 -6 -6 -6 -6 -6 -6 -6 -6 -6 -5 -5 -4 -2 0 2 4 5 6 7 8 9 10 10 11 11 12 12
1 1 -0 -1 -1 -2 -2 -2 -2 -3 -3 -4 -5 -5 -6 -6 -6 -7 -7 -7 -7 -6 -6 -6 -6 -6 -6 -5 -4 -2 1 2 3 4 5 6 8 9 9 10 11 11 11
1 -0 -1 -2 -3 -3 -3 -3 -3 -4 -4 -5 -5 -6 -6 -6 -7 -7 -8 -7 -7 -7 -7 -7 -7 -7 -6 -6 -5 -4 -0 1 2 2 3 4 5 7 8 9 10 10 11
-0 -2 -2 -3 -3 -4 -4 -4 -5 -5 -5 -6 -6 -6 -7 -7 -8 -8 -8 -8 -8 -8 -8 -8 -8 -8 -7 -7 -6 -5 -4 -1 1 2 2 3 4 5 6 8 9 9 10
-1 -2 -3 -3 -4 -4 -5 -5 -5 -5 -5 -5 -6 -7 -7 -8 -8 -9 -9 -9 -9 -9 -9 -9 -9 -9 -8 -7 -7 -6 -5 -3 -4 -0 1 1 2 3 5 6 7 8 9
-2 -3 -3 -4 -4 -5 -5 -6 -6 -6 -7 -7 -8 -8 -8 -8 -9 -9 -9 -9 -9 -9 -9 -9 -9 -9 -9 -8 -7 -7 -6 -5 -5 -3 -2 -1 0 1 3 4 6 7 8
-2 -3 -4 -4 -4 -5 -6 -6 -7 -7 -8 -8 -8 -8 -9 -9 -9 -10 -10 -10 -10 -10 -10 -10 -10 -9 -9 -9 -8 -8 -7 -6 -5 -4 -4 -3 -1 0 2 3 4 6 7
-3 -3 -4 -4 -5 -6 -6 -7 -7 -8 -8 -8 -9 -9 -10 -10 -10 -10 -11 -11 -11 -11 -10 -10 -10 -10 -9 -9 -9 -8 -7 -7 -6 -5 -4 -4 -3 -2 0 2 3 4 6
Wind_Speed
10 23 28 29 30 30 30 30 30 30 30 29 28 27 25 24 22 21 19 17 16 15 14 13 13 12 12 12 11 9 8 7 6 6 5 4 3 3 3 2 1 2 5
14 23 27 29 30 30 30 30 30 30 30 30 30 29 28 26 25 23 22 20 19 18 16 15 14 13 13 13 13 11 10 9 8 7 6 6 5 5 5 4 2 5 6
19 25 27 30 30 30 30 30 30 30 30 30 30 30 29 28 27 26 25 24 22 21 19 18 16 15 14 14 14 13 12 11 10 8 8 7 7 8 7 7 5 7 7
24 27 28 30 30 30 30 30 30 31 30 31 31 31 30 29 29 28 27 27 26 24 23 21 19 17 16 15 14 14 14 13 12 10 9 8 8 9 10 10 9 8 8
26 28 29 31 31 31 31 31 31 31 31 31 31 31 31 30 30 29 29 28 27 26 25 24 22 20 18 17 15 15 15 15 14 12 10 10 10 11 12 13 12 11 10
24 28 29 32 32 31 31 31 31 30 30 30 31 31 31 31 30 29 30 29 29 28 27 26 24 23 21 19 17 16 16 15 14 12 11 11 11 13 14 15 15 13 12
21 26 29 32 33 32 31 32 31 30 30 30 30 30 30 31 31 30 30 30 29 29 28 28 26 25 24 22 19 18 17 16 14 12 12 12 12 14 15 16 17 16 15
22 25 28 32 33 32 31 32 31 30 31 30 30 30 30 31 31 30 31 31 30 29 29 28 28 28 26 24 22 20 18 17 14 12 12 13 15 16 16 17 17 17 16
24 26 28 30 31 32 31 31 31 30 30 30 30 30 30 30 30 30 31 31 31 30 29 29 29 29 28 26 24 23 21 20 15 13 14 13 15 17 18 18 18 18 17
22 25 27 30 31 30 28 30 30 29 30 30 29 29 29 28 28 29 30 31 31 31 30 30 29 29 28 26 26 26 24 19 14 14 13 15 18 19 19 20 21 20 19
18 22 26 28 29 29 27 27 28 27 29 28 28 29 27 24 25 26 29 30 31 30 30 30 31 29 28 25 26 26 22 16 16 13 13 17 21 21 21 21 22 23 21
15 15 23 25 28 28 26 25 25 24 26 26 26 26 24 24 24 25 27 29 30 29 29 30 30 27 25 22 23 23 17 19 15 13 13 18 21 22 22 22 23 24 24
9 13 20 24 27 27 24 23 22 22 23 24 25 25 24 22 23 23 22 23 24 25 24 26 24 22 22 21 20 19 18 17 14 14 15 19 21 21 22 23 23 25 25
11 13 17 22 24 24 23 22 21 21 21 21 23 25 24 20 21 21 20 21 20 20 22 21 20 21 22 22 20 19 19 16 16 15 16 21 22 22 21 22 23 24 25
11 11 12 18 22 22 21 21 21 22 22 22 22 23 24 21 19 20 19 20 20 21 20 19 19 19 18 19 19 19 18 18 18 17 16 22 23 22 20 20 22 23 24
8 9 12 16 22 22 21 21 21 22 23 22 22 24 25 23 21 19 18 18 19 21 21 19 18 16 14 15 15 17 18 18 17 18 18 19 21 22 20 19 20 22 23
7 8 12 17 20 20 20 21 21 22 22 21 22 24 25 25 23 21 17 15 19 22 21 19 17 15 12 13 15 15 14 15 17 18 19 17 17 19 20 19 19 20 22
7 8 10 17 18 18 19 20 20 21 21 20 22 23 25 25 25 22 16 15 20 20 19 14 10 13 12 13 13 13 13 13 16 17 17 16 15 14 16 19 19 19 21
7 7 8 12 14 16 17 18 18 18 19 19 21 22 24 24 25 22 16 17 20 17 15 13 12 13 14 14 14 14 13 14 14 14 14 13 13 13 12 15 17 18 19
6 6 7 10 13 15 16 15 14 14 17 18 20 22 23 24 25 22 17 19 19 13 11 12 14 13 12 13 15 15 14 14 11 9 10 9 9 11 11 12 11 12 17
8 8 8 8 9 11 8 9 10 10 9 14 19 21 22 24 24 21 18 17 17 10 12 13 13 13 12 12 13 15 12 11 7 6 7 8 9 10 11 10 8 8 9
6 6 6 7 7 9 8 8 7 6 7 13 15 17 21 23 22 20 19 16 16 11 12 12 13 10 11 11 12 12 7 7 8 10 7 8 9 9 10 11 10 8 7
4 5 8 7 7 10 12 10 10 5 5 6 6 10 19 22 21 20 20 18 17 11 11 12 11 12 12 11 9 7 6 6 12 7 7 7 10 10 9 9 10 11 9
3 5 6 7 7 10 12 9 10 11 8 9 9 8 17 20 20 20 20 18 17 13 10 11 11 11 10 11 10 7 8 9 7 8 7 7 10 11 10 11 11 10 11
4 6 6 7 7 9 11 8 9 8 7 8 9 9 9 14 18 20 19 18 17 14 12 11 12 11 9 10 10 10 11 10 9 8 12 13 12 8 10 11 9 8 9
6 6 7 7 7 8 9 8 9 10 11 12 13 11 10 8 12 18 19 18 17 15 13 12 10 12 11 11 10 9 10 9 9 8 10 14 14 12 12 9 8 7 7
Wind_Direction
345 358 11 18 22 24 25 25 25 25 24 22 19 17 14 12 9 5 2 358 354 349 345 337 332 329 326 322 319 318 314 309 310 313 309 291 246 194 161 135 129 169 161
355 5 14 19 22 24 24 25 24 24 23 22 20 17 15 14 12 8 5 1 357 352 346 338 330 326 322 318 313 307 301 295 291 289 291 289 265 230 196 166 151 169 165
14 11 14 19 21 22 23 23 23 22 22 22 20 17 16 14 13 12 10 6 1 355 349 342 332 323 317 313 308 302 295 289 282 276 276 278 270 246 218 189 178 169 170
23 16 15 19 19 20 21 21 21 21 20 20 19 17 15 14 13 11 10 7 3 359 354 347 339 329 319 311 305 299 292 285 279 272 268 265 266 254 230 203 191 182 178
27 19 16 20 19 19 20 19 19 19 18 18 17 16 14 12 11 9 8 5 2 0 357 352 345 337 327 316 306 297 290 284 278 271 262 261 265 263 242 215 199 191 186
27 21 18 20 19 18 18 18 17 17 16 15 14 13 12 10 9 8 6 3 0 359 356 353 350 346 338 326 313 301 292 286 281 270 260 258 261 264 245 216 204 196 192
28 25 21 21 19 17 17 17 15 15 14 13 12 11 10 8 6 5 4 0 359 357 355 354 353 349 345 337 325 310 298 292 283 266 259 256 257 261 245 219 207 201 197
31 26 24 21 18 16 15 15 14 14 12 11 10 9 9 7 4 3 1 358 356 355 354 353 351 349 346 342 337 327 313 300 286 273 263 258 258 258 244 224 212 206 203
33 28 24 21 17 14 13 13 12 12 11 10 9 8 8 6 3 2 359 355 354 353 352 351 350 348 346 343 341 337 329 312 289 275 271 266 263 259 244 227 216 210 206
32 27 23 21 17 11 8 10 10 10 9 10 9 8 8 6 4 2 357 354 353 352 351 349 348 346 345 343 342 339 334 324 301 280 270 267 268 265 253 235 221 213 208
27 24 22 20 16 11 8 7 7 7 7 8 7 8 8 6 3 2 355 354 352 351 351 348 347 345 344 341 339 338 338 330 315 293 276 270 270 268 261 246 229 217 211
22 19 22 21 15 11 8 4 5 4 2 3 5 9 7 5 2 -0 355 353 351 350 350 347 345 346 344 338 335 336 334 329 322 309 292 283 277 271 264 252 238 224 215
24 21 22 23 16 11 7 3 5 1 0 0 3 8 7 3 360 357 354 351 349 349 348 344 343 343 340 336 331 330 332 331 325 317 306 298 291 281 268 255 243 231 221
34 24 20 25 17 11 9 2 5 2 359 360 360 6 6 2 358 354 351 348 348 348 343 341 338 336 337 334 331 330 330 327 321 317 312 310 303 292 277 259 245 234 226
39 23 15 27 18 12 11 5 4 1 358 356 360 5 6 2 356 351 347 346 346 345 341 337 335 335 334 332 330 329 325 320 316 316 314 311 310 303 287 266 248 235 229
42 24 15 26 17 13 11 5 2 359 357 356 359 1 2 359 354 349 344 344 345 343 338 334 329 332 330 329 327 325 319 315 314 314 311 308 307 308 297 276 257 241 233
48 31 20 20 15 12 10 5 1 357 356 357 358 359 358 357 354 349 343 345 346 342 338 335 330 333 329 328 324 321 317 315 312 309 307 303 302 304 301 285 268 251 240
51 37 24 19 13 9 5 1 358 356 356 357 358 357 356 356 354 349 344 347 347 344 341 335 334 334 330 327 323 318 316 312 306 303 302 298 298 297 299 293 277 261 247
53 38 23 16 11 5 0 357 353 354 355 356 356 356 355 354 353 348 345 348 348 345 341 337 338 333 330 328 323 318 314 305 298 299 300 299 295 293 293 294 284 266 255
48 37 23 11 7 2 358 355 353 354 354 355 354 355 355 353 351 347 351 348 349 345 341 339 336 332 330 327 324 318 307 295 290 293 304 312 314 314 307 300 291 274 257
35 24 15 4 358 360 356 356 352 350 346 349 351 352 353 352 349 348 352 347 349 343 338 338 335 332 334 333 327 324 305 289 287 317 321 324 336 341 334 326 311 290 269
27 5 7 1 355 356 351 344 341 330 327 338 338 346 350 349 348 351 349 346 345 340 337 337 334 334 331 337 332 327 321 314 341 326 323 329 342 341 345 342 333 323 300
11 359 13 360 351 350 348 347 345 333 323 337 337 344 345 345 345 346 343 343 341 338 334 332 332 335 329 329 331 322 322 326 326 305 323 332 340 337 340 336 340 333 313
358 3 7 355 347 347 350 351 351 351 344 336 335 331 334 338 340 342 340 341 338 334 329 329 336 325 324 325 324 314 311 308 307 311 315 329 335 332 333 334 329 327 324
13 8 357 348 343 345 348 346 342 339 329 327 329 328 328 332 336 337 338 339 335 331 326 323 324 323 322 317 319 319 314 308 293 300 307 319 324 325 329 322 317 318 326
8 359 350 347 343 342 344 340 337 336 333 335 336 334 334 330 330 331 335 334 330 327 325 322 321 320 317 315 317 315 313 310 310 308 305 312 314 319 319 314 317 328 335
Height
1609 1605 1601 1597 1594 1591 1588 1585 1582 1580 1577 1575 1573 1571 1569 1567 1565 1563 1561 1559 1557 1555 1553 1552 1550 1549 1548 1547 1546 1545 1544 1543 1542 1542 1541 1541 1540 1540 1540 1540 1540 1540 1541
1611 1606 1602 1598 1595 1592 1588 1585 1583 1580 1577 1575 1572 1570 1568 1566 1564 1562 1560 1557 1555 1554 1552 1550 1549 1547 1546 1545 1544 1543 1542 1541 1541 1540 1540 1539 1539 1539 1539 1539 1539 1540 1540
1611 1607 1603 1599 1595 1592 1589 1586 1583 1580 1577 1574 1572 1569 1567 1565 1563 1560 1558 1556 1554 1552 1550 1548 1547 1545 1544 1542 1541 1540 1540 1539 1538 1538 1538 1537 1537 1537 1537 1538 1538 1539 1539
1611 1607 1603 1600 1596 1593 1589 1586 1583 1580 1577 1574 1571 1568 1566 1563 1561 1559 1556 1554 1552 1550 1548 1546 1544 1542 1541 1540 1539 1538 1537 1536 1536 1535 1535 1535 1535 1535 1535 1536 1536 1537 1538
1611 1608 1604 1600 1597 1593 1590 1586 1583 1580 1576 1573 1570 1567 1565 1562 1559 1556 1554 1552 1549 1547 1545 1543 1541 1539 1538 1536 1535 1534 1534 1533 1533 1532 1532 1532 1532 1532 1533 1533 1534 1535 1536
1612 1608 1604 1601 1597 1594 1590 1586 1583 1579 1576 1572 1569 1566 1563 1560 1557 1554 1552 1549 1546 1544 1542 1539 1537 1535 1534 1532 1531 1531 1530 1529 1529 1529 1529 1529 1529 1529 1530 1531 1532 1533 1534
1612 1608 1605 1601 1597 1593 1590 1586 1582 1578 1575 1571 1567 1564 1560 1557 1555 1551 1549 1546 1543 1541 1538 1536 1533 1531 1530 1528 1527 1526 1526 1525 1525 1525 1525 1525 1526 1526 1527 1527 1528 1530 1531
1612 1608 1605 1601 1597 1593 1589 1585 1581 1577 1573 1569 1565 1561 1557 1554 1551 1548 1545 1542 1539 1537 1534 1531 1529 1527 1525 1524 1522 1521 1521 1520 1520 1520 1520 1521 1522 1522 1523 1524 1525 1526 1528
1611 1608 1604 1600 1596 1592 1588 1583 1579 1574 1570 1566 1561 1557 1554 1550 1547 1543 1540 1538 1534 1532 1529 1527 1524 1523 1521 1519 1518 1516 1515 1514 1514 1514 1515 1516 1517 1518 1519 1519 1521 1522 1524
1610 1606 1603 1599 1595 1590 1586 1581 1577 1572 1568 1563 1558 1554 1550 1546 1542 1539 1536 1533 1529 1526 1523 1521 1519 1517 1515 1514 1513 1511 1510 1509 1509 1509 1509 1510 1512 1513 1514 1515 1516 1518 1520
1609 1605 1602 1597 1593 1588 1584 1579 1575 1570 1565 1560 1555 1551 1546 1542 1538 1534 1532 1528 1524 1521 1517 1515 1512 1511 1509 1508 1507 1506 1505 1504 1503 1503 1503 1505 1506 1507 1508 1510 1511 1513 1515
1608 1605 1600 1596 1591 1586 1582 1577 1572 1568 1563 1558 1553 1548 1544 1540 1536 1531 1527 1524 1520 1516 1512 1510 1507 1505 1502 1501 1501 1500 1499 1498 1497 1497 1497 1498 1499 1501 1502 1503 1505 1508 1510
1610 1605 1600 1596 1591 1585 1580 1575 1570 1565 1561 1556 1551 1546 1541 1537 1533 1528 1523 1519 1515 1511 1507 1504 1501 1499 1496 1495 1493 1493 1492 1492 1491 1491 1491 1491 1492 1493 1495 1497 1499 1501 1504
1610 1605 1600 1595 1589 1583 1578 1573 1568 1563 1558 1553 1549 1544 1538 1534 1529 1525 1521 1516 1511 1507 1503 1500 1496 1493 1491 1489 1487 1485 1485 1485 1485 1484 1484 1484 1485 1486 1488 1490 1493 1495 1498
1609 1605 1599 1593 1588 1582 1577 1571 1566 1561 1556 1552 1547 1542 1537 1532 1527 1522 1518 1513 1509 1504 1500 1495 1492 1488 1485 1482 1481 1479 1477 1477 1477 1477 1477 1478 1478 1479 1481 1483 1486 1488 1491
1608 1603 1598 1593 1587 1582 1576 1570 1565 1560 1555 1550 1545 1540 1535 1530 1525 1520 1515 1511 1506 1501 1497 1493 1488 1484 1480 1477 1474 1472 1471 1470 1469 1470 1470 1471 1472 1473 1474 1477 1479 1482 1485
1607 1603 1598 1592 1587 1581 1575 1570 1564 1559 1554 1549 1544 1539 1534 1529 1524 1518 1513 1509 1504 1499 1494 1489 1485 1480 1476 1472 1468 1466 1464 1463 1462 1462 1463 1464 1465 1466 1468 1470 1472 1475 1478
1607 1602 1597 1591 1585 1580 1574 1569 1563 1558 1553 1547 1542 1537 1532 1526 1521 1516 1512 1507 1502 1497 1492 1486 1482 1476 1472 1467 1463 1460 1458 1456 1456 1456 1456 1457 1458 1459 1461 1462 1465 1468 1471
1606 1601 1596 1590 1584 1578 1573 1567 1562 1557 1551 1546 1540 1535 1529 1524 1519 1514 1510 1504 1499 1494 1489 1485 1480 1475 1469 1463 1458 1454 1452 1451 1450 1450 1449 1450 1451 1452 1454 1456 1458 1461 1464
1605 1600 1594 1588 1582 1576 1570 1565 1560 1555 1549 1544 1538 1533 1527 1522 1517 1512 1507 1502 1497 1491 1486 1482 1477 1473 1468 1463 1456 1450 1447 1445 1445 1444 1444 1444 1444 1445 1447 1449 1451 1454 1457
1604 1598 1592 1586 1580 1573 1567 1561 1555 1550 1546 1541 1536 1531 1525 1520 1514 1509 1504 1499 1494 1489 1484 1480 1475 1470 1465 1461 1454 1446 1441 1441 1440 1439 1439 1438 1438 1439 1440 1442 1445 1447 1450
1602 1596 1590 1584 1578 1572 1566 1561 1555 1550 1545 1539 1534 1529 1523 1517 1512 1507 1501 1496 1491 1485 1481 1476 1472 1467 1463 1460 1456 1449 1442 1437 1435 1434 1434 1433 1433 1434 1435 1436 1438 1441 1444
1599 1593 1588 1582 1577 1571 1565 1559 1553 1547 1541 1535 1529 1525 1520 1515 1509 1504 1499 1493 1488 1483 1478 1473 1470 1466 1461 1458 1457 1455 1449 1442 1435 1428 1429 1429 1429 1428 1429 1430 1432 1434 1437
1597 1592 1587 1581 1575 1569 1563 1557 1550 1544 1538 1532 1527 1522 1517 1512 1506 1501 1496 1490 1485 1480 1475 1471 1468 1464 1460 1456 1453 1452 1451 1447 1442 1432 1425 1425 1425 1425 1425 1425 1427 1429 1431
1596 1591 1585 1580 1574 1568 1562 1556 1549 1543 1537 1531 1525 1519 1513 1508 1503 1498 1492 1487 1482 1477 1472 1468 1464 1461 1458 1455 1451 1449 1446 1444 1441 1437 1428 1422 1421 1421 1421 1422 1423 1424 1426
1594 1589 1583 1578 1572 1566 1560 1554 1548 1541 1535 1528 1521 1515 1509 1504 1499 1494 1489 1484 1479 1474 1469 1464 1461 1457 1454 1451 1448 1445 1443 1441 1438 1435 1430 1424 1419 1417 1417 1418 1419 1420 1421